Location: Melbourne
(37.8170°S, 144.9670°E)
Time: 06:19:33
(UTC+10:00)

ISS - All Passes

Search period start: 02 September 2015 00:00
Search period end: 12 September 2015 00:00
Orbit: 400 x 402 km, 51.6° (Epoch: 01 September)

Date Brightness Start Highest point End Pass type
(mag) Time Alt. Az. Time Alt. Az. Time Alt. Az.
02 Sep - 01:40:36 10° SSW 01:42:48 16° SSE 01:45:01 10° ESE night (unlit)
02 Sep - 03:16:16 10° SW 03:19:35 80° NW 03:22:54 10° NE night (unlit)
02 Sep - 19:53:50 10° NW 19:57:07 85° NE 20:00:27 10° SE visible
02 Sep - 21:31:48 10° WSW 21:33:57 16° SSW 21:36:04 10° SSE night (unlit)
03 Sep - 00:47:55 10° S 00:49:12 12° SSE 00:50:33 10° SE night (unlit)
03 Sep - 02:23:02 10° SW 02:26:17 49° SE 02:29:31 10° ENE night (unlit)
03 Sep - 04:00:25 10° W 04:02:26 15° NW 04:04:22 10° NNW night (unlit)
03 Sep - 19:00:50 10° NNW 19:03:54 38° NE 19:07:01 10° ESE visible
03 Sep - 20:37:40 10° W 20:40:25 23° SSW 20:43:10 10° SSE visible
04 Sep - 01:29:58 10° SSW 01:32:53 27° SSE 01:35:48 10° E night (unlit)
04 Sep - 03:06:20 10° WSW 03:09:18 30° NW 03:12:15 10° NNE night (unlit)
04 Sep - 18:08:25 10° N 18:10:45 19° NE 18:13:11 10° E daylight
04 Sep - 19:43:51 10° WNW 19:46:59 40° SW 19:50:08 10° SE visible
04 Sep - 21:23:15 10° SSW 21:24:09 11° SSW 21:25:01 10° S visible
05 Sep - 00:37:02 10° SSW 00:39:23 18° SSE 00:41:46 10° ESE night (unlit)
05 Sep - 02:12:49 10° SW 02:16:07 67° NW 02:19:23 10° NE night (unlit)
05 Sep - 18:50:22 10° NW 18:53:39 80° SW 18:56:59 10° SE visible
05 Sep - 20:28:35 10° WSW 20:30:33 15° SSW 20:32:29 10° SSE visible
05 Sep - 23:44:16 10° S 23:45:49 13° SSE 23:47:24 10° SE night (unlit)
06 Sep - 01:19:33 10° SW 01:22:50 58° SE 01:26:06 10° ENE night (unlit)
06 Sep - 02:57:20 10° W 02:58:56 13° NW 03:00:23 10° NNW night (unlit)
06 Sep - 17:57:15 10° NNW 18:00:24 46° NE 18:03:37 10° ESE daylight
06 Sep - 19:34:22 10° W 19:37:00 21° SSW 19:39:37 10° SSE visible
07 Sep - 00:26:26 10° SSW 00:29:27 31° SSE 00:32:28 10° E night (unlit)
07 Sep - 02:02:59 10° WSW 02:05:48 25° NW 02:08:35 10° N night (unlit)
07 Sep - 17:04:39 10° N 17:07:15 22° NE 17:09:55 10° ESE daylight
07 Sep - 18:40:29 10° W 18:43:33 34° SSW 18:46:38 10° SE visible
07 Sep - 20:20:23 10° SSW 20:20:47 10° SSW 20:21:07 10° S visible
07 Sep - 23:33:28 10° SSW 23:35:59 20° SSE 23:38:30 10° ESE night (unlit)
08 Sep - 01:09:22 10° WSW 01:12:38 55° NW 01:15:51 10° NE night (unlit)
08 Sep - 16:13:21 10° NE 16:14:08 11° NE 16:15:05 10° ENE daylight
08 Sep - 17:46:55 10° WNW 17:50:12 67° SW 17:53:30 10° SE daylight
08 Sep - 19:25:23 10° SW 19:27:09 13° SSW 19:28:52 10° SSE visible
08 Sep - 22:40:39 10° SSW 22:42:25 14° SSE 22:44:14 10° SE night (unlit)
09 Sep - 00:16:03 10° SW 00:19:22 69° SE 00:22:40 10° ENE night (unlit)
09 Sep - 01:54:37 10° WNW 01:55:25 11° NW 01:56:03 10° NW night (unlit)
09 Sep - 16:53:42 10° NW 16:56:55 56° NE 17:00:11 10° ESE daylight
09 Sep - 18:31:06 10° WSW 18:33:35 19° SSW 18:36:04 10° SSE visible
09 Sep - 21:48:19 10° S 21:48:48 10° SSE 21:49:19 10° SSE night (unlit)
09 Sep - 23:22:55 10° SW 23:26:01 35° SSE 23:29:06 10° ENE night (unlit)
10 Sep - 00:59:40 10° W 01:02:18 22° NW 01:04:52 10° N night (unlit)
10 Sep - 16:00:58 10° N 16:03:45 26° NE 16:06:36 10° ESE daylight
10 Sep - 17:37:08 10° W 17:40:07 30° SSW 17:43:06 10° SSE daylight
10 Sep - 22:29:55 10° SSW 22:32:34 22° SSE 22:35:14 10° E night (unlit)
11 Sep - 00:05:57 10° WSW 00:09:09 45° NW 00:12:18 10° NNE night (unlit)
11 Sep - 15:09:06 10° NNE 15:10:38 13° NE 15:12:17 10° E daylight
11 Sep - 16:43:29 10° WNW 16:46:44 56° SW 16:50:01 10° SE daylight
11 Sep - 18:22:13 10° SW 18:23:46 12° SSW 18:25:15 10° S daylight
11 Sep - 21:37:04 10° SSW 21:39:02 15° SSE 21:41:02 10° ESE night (unlit)
11 Sep - 23:12:35 10° SW 23:15:55 83° SE 23:19:13 10° NE night (unlit)
